KI8L Weather Reports


time (UTC)temp
F
wind
direction
speed
knots
gust
knots
rain 1hr
in
rain 24hr
in
rain mn
in
humidity
%
barometer
mb
20260508125748 54 234 4.3 6.1 0.00 0.01 0.01 73 1015.5
20260508125244 54 129 3.5 5.2 0.00 0.01 0.01 73 1015.4
20260508124743 53 261 1.7 3.5 0.00 0.01 0.01 74 1015.4
20260508124239 53 263 1.7 2.6 0.00 0.01 0.01 75 1015.2
20260508123737 53 231 1.7 2.6 0.00 0.01 0.01 76 1015.2
20260508123235 52 206 0.9 0.9 0.00 0.01 0.01 78 1015.4
20260508122731 51 234 0.9 0.9 0.00 0.01 0.01 80 1015.3
20260508122228 51 225 2.6 2.6 0.00 0.01 0.01 79 1015.3
20260508121726 50 195 2.6 3.5 0.00 0.01 0.01 81 1015.3
20260508121224 49 214 1.7 1.7 0.00 0.01 0.01 83 1015.3
20260508120721 49 217 1.7 1.7 0.00 0.01 0.01 81 1015.3
20260508120219 48 193 1.7 2.6 0.00 0.01 0.01 89 1015.3
20260508115716 47 170 1.7 2.6 0.00 0.01 0.01 88 1015.3
20260508115213 47 187 3.5 3.5 0.00 0.01 0.01 89 1015.2
20260508114710 46 172 1.7 1.7 0.00 0.01 0.01 90 1015.2
20260508114207 46 199 1.7 1.7 0.00 0.01 0.01 90 1015.1
20260508113703 46 170 0.9 0.9 0.00 0.01 0.01 95 1015.1
20260508113202 45 170 1.7 1.7 0.00 0.01 0.01 95 1015.0
20260508112658 45 169 3.5 3.5 0.00 0.01 0.01 93 1015.0
20260508112155 44 240 0.9 0.9 0.00 0.01 0.01 99 1015.1
20260508111651 44 240 0.9 1.7 0.00 0.01 0.01 99 1015.1
20260508111149 43 240 0.9 0.9 0.00 0.01 0.01 99 1015.0
20260508110646 44 240 1.7 1.7 0.00 0.01 0.01 99 1015.1
20260508110143 44 240 0.0 0.0 0.00 0.01 0.01 99 1015.0
20260508105637 44 240 0.0 0.0 0.00 0.01 0.01 99 1015.0
20260508105135 44 75 0.0 0.0 0.00 0.01 0.01 99 1015.0
20260508104633 44 75 0.0 0.0 0.00 0.01 0.01 99 1014.9
20260508104129 44 75 0.0 0.0 0.00 0.01 0.01 99 1014.7
20260508103626 44 174 0.9 1.7 0.00 0.01 0.01 99 1015.0
20260508103123 44 126 0.9 0.9 0.00 0.01 0.01 99 1015.0
20260508102620 43 183 0.9 0.9 0.00 0.01 0.01 99 1014.8
20260508102118 43 183 0.9 0.9 0.00 0.01 0.01 99 1015.1
20260508101615 43 183 0.9 0.9 0.00 0.01 0.01 99 1014.7
20260508101113 43 183 0.0 0.9 0.00 0.01 0.01 98 1014.9
20260508100610 43 183 0.0 0.0 0.00 0.01 0.01 98 1014.7
20260508100108 43 183 0.0 0.0 0.00 0.01 0.01 98 1014.8
20260508095604 43 183 0.0 0.0 0.00 0.01 0.01 98 1014.9
20260508095101 43 184 0.0 0.0 0.00 0.01 0.01 98 1015.1
20260508094558 42 184 0.0 0.0 0.00 0.01 0.01 98 1014.8
20260508094055 42 184 0.0 0.0 0.00 0.01 0.01 97 1014.9
20260508093552 42 184 0.0 0.0 0.00 0.01 0.01 97 1014.7
20260508093050 42 184 0.0 0.0 0.00 0.01 0.01 96 1014.9
20260508092547 42 184 0.0 0.0 0.00 0.01 0.01 95 1014.7
20260508092046 43 184 0.0 0.0 0.00 0.01 0.01 94 1014.8
20260508091542 43 183 0.0 0.0 0.00 0.01 0.01 92 1014.6
20260508091039 44 184 0.0 0.0 0.00 0.01 0.01 91 1014.7
20260508090537 45 183 0.9 0.9 0.00 0.01 0.01 90 1014.9
20260508090034 46 183 0.0 0.0 0.00 0.01 0.01 89 1015.0
20260508085530 46 183 0.0 0.0 0.00 0.01 0.01 88 1015.0
20260508085027 47 183 0.0 0.0 0.00 0.01 0.01 85 1015.1
20260508084524 47 180 1.7 1.7 0.00 0.01 0.01 84 1015.0
20260508084022 46 278 0.9 1.7 0.00 0.01 0.01 85 1015.2
20260508083519 47 279 0.9 0.9 0.00 0.01 0.01 85 1015.1
20260508083015 47 279 0.9 0.9 0.00 0.01 0.01 83 1014.8
20260508082511 47 13 0.0 0.0 0.05 0.01 0.01 84 1014.9
20260508082009 48 252 2.6 2.6 0.05 0.01 0.01 84 1015.1
20260508081506 47 261 1.7 5.2 0.00 0.00 0.00 82 1015.6
20260508081001 47 226 1.7 1.7 0.00 0.00 0.00 84 1015.3
20260508080500 46 224 0.0 0.9 0.00 0.00 0.00 85 1015.4
20260508075957 46 202 0.0 0.0 0.00 0.00 0.00 85 1015.3
20260508075453 45 185 0.9 0.9 0.00 0.00 0.00 87 1015.1
20260508074951 45 185 0.9 1.7 0.00 0.00 0.00 85 1015.2
20260508074449 45 183 0.9 0.9 0.00 0.00 0.00 86 1015.0
20260508073945 45 224 1.7 1.7 0.00 0.00 0.00 85 1015.1
20260508073443 45 180 0.9 1.7 0.00 0.00 0.00 88 1015.1
20260508072940 44 181 0.9 0.9 0.00 0.00 0.00 88 1015.3
20260508072436 44 181 1.7 1.7 0.00 0.00 0.00 88 1015.1
20260508071933 44 183 0.9 1.7 0.00 0.00 0.00 88 1015.3
20260508071431 45 183 1.7 1.7 0.00 0.00 0.00 87 1015.2
20260508070929 45 172 2.6 3.5 0.00 0.00 0.00 87 1015.3
20260508070426 46 179 1.7 1.7 0.00 0.00 0.00 86 1015.5
20260508065924 46 178 1.7 1.7 0.00 0.00 0.00 85 1015.4
20260508065422 46 196 0.9 1.7 0.00 0.00 0.00 85 1015.5
20260508064920 46 196 2.6 2.6 0.00 0.00 0.00 85 1015.5
20260508064417 47 196 1.7 1.7 0.00 0.00 0.00 85 1015.4
20260508063914 47 197 1.7 2.6 0.00 0.00 0.00 85 1015.5
20260508063412 47 197 0.0 0.9 0.00 0.00 0.00 86 1015.7
20260508062909 47 197 1.7 1.7 0.00 0.00 0.00 84 1015.7
20260508062407 47 197 1.7 1.7 0.00 0.00 0.00 83 1015.7
20260508061903 47 209 4.3 6.1 0.00 0.00 0.00 82 1016.1
20260508061401 47 192 1.7 1.7 0.00 0.00 0.00 82 1015.9
20260508060857 48 193 0.9 0.9 0.00 0.00 0.00 81 1015.7
20260508060355 48 192 0.0 0.9 0.00 0.00 0.00 80 1015.7
20260508055850 48 189 0.9 1.7 0.00 0.00 0.00 78 1015.7
20260508055348 47 191 0.9 1.7 0.00 0.00 0.00 83 1015.8
20260508054844 47 247 0.9 0.9 0.00 0.00 0.00 86 1015.8
20260508054341 46 330 1.7 1.7 0.00 0.00 0.00 92 1015.8
20260508053838 46 341 0.9 0.9 0.00 0.00 0.00 93 1015.8
20260508053336 46 341 0.0 0.0 0.00 0.00 0.00 89 1015.7
20260508052832 46 341 0.0 0.0 0.00 0.00 0.00 89 1015.9
20260508052330 46 341 0.0 0.0 0.00 0.00 0.00 91 1015.8
20260508051826 46 341 0.0 0.0 0.00 0.00 0.00 89 1015.8
20260508051322 46 341 0.0 0.0 0.00 0.00 0.00 86 1015.8
20260508050818 46 341 0.0 0.0 0.00 0.00 0.00 88 1015.8
20260508050315 46 341 0.0 0.0 0.00 0.00 0.00 88 1015.8
20260508045811 46 341 0.0 0.0 0.00 0.00 0.00 88 1015.7
20260508045309 46 341 0.0 0.0 0.00 0.00 0.00 88 1015.7
20260508044807 46 341 0.0 0.0 0.00 0.00 0.00 87 1015.8
20260508044303 46 341 0.0 0.0 0.00 0.00 0.00 88 1015.9
20260508043759 46 341 0.9 0.9 0.00 0.00 0.00 89 1015.6
20260508043257 46 341 0.0 0.0 0.00 0.00 0.00 86 1015.7
20260508042753 46 341 0.0 0.0 0.00 0.00 0.00 82 1015.7
20260508042251 45 341 0.0 0.9 0.00 0.00 0.00 83 1015.8
20260508041747 46 341 0.9 1.7 0.00 0.00 0.00 86 1015.7
20260508041243 46 341 1.7 1.7 0.00 0.00 0.00 86 1015.5
20260508040740 47 341 0.0 0.0 0.00 0.00 0.00 82 1015.7
20260508040238 47 341 0.0 0.0 0.00 0.00 0.00 76 1015.9
20260508035735 48 341 0.0 0.0 0.00 0.00 0.00 77 1015.9
20260508035232 48 341 0.0 0.0 0.00 0.00 0.00 75 1016.0
20260508034728 48 341 0.0 0.0 0.00 0.00 0.00 74 1016.1
20260508034226 48 341 0.0 0.0 0.00 0.00 0.00 73 1016.0
20260508033723 48 341 0.0 0.0 0.00 0.00 0.00 71 1015.9
20260508033221 48 341 0.0 0.0 0.00 0.00 0.00 69 1016.1
20260508032719 48 341 0.0 0.0 0.00 0.00 0.00 69 1016.0
20260508032215 49 341 0.0 0.0 0.00 0.00 0.00 71 1016.1
20260508031712 49 341 0.0 0.0 0.00 0.00 0.00 69 1016.0
20260508031208 49 341 0.0 0.0 0.00 0.00 0.00 68 1016.1
20260508030705 50 341 0.0 0.0 0.00 0.00 0.00 66 1016.1
20260508030203 50 343 0.9 1.7 0.00 0.00 0.00 64 1016.1
20260508025659 50 333 0.9 0.9 0.00 0.00 0.00 64 1016.2
20260508025156 50 16 1.7 2.6 0.00 0.00 0.00 64 1016.1
20260508024651 50 315 1.7 2.6 0.00 0.00 0.00 64 1016.2
20260508024149 50 1 0.9 1.7 0.00 0.00 0.00 63 1016.3
20260508023645 50 307 1.7 2.6 0.00 0.00 0.00 63 1016.2
20260508023143 50 308 0.9 0.9 0.00 0.00 0.00 62 1016.2
20260508022638 51 291 3.5 3.5 0.00 0.00 0.00 61 1016.0
20260508022136 50 249 3.5 3.5 0.00 0.00 0.00 60 1016.1
20260508021632 51 320 0.0 0.0 0.00 0.00 0.00 61 1016.0
20260508021127 51 11 1.7 2.6 0.00 0.00 0.00 60 1015.8
20260508020625 51 354 0.9 0.9 0.00 0.00 0.00 57 1016.0
20260508020123 51 247 1.7 1.7 0.00 0.00 0.00 58 1015.9
20260508015620 51 256 0.0 0.0 0.00 0.00 0.00 57 1016.0
20260508015117 51 256 1.7 2.6 0.00 0.00 0.00 57 1015.9
20260508014613 51 251 1.7 1.7 0.00 0.00 0.00 56 1015.8
20260508014110 51 268 3.5 3.5 0.00 0.00 0.00 58 1015.5
20260508013606 45 233 4.3 6.1 0.00 0.00 0.00 76 1015.6
20260508013103 45 311 0.0 0.0 0.00 0.00 0.00 85 1015.5
20260508012600 44 311 0.0 0.0 0.00 0.00 0.00 83 1015.5
20260508012057 44 312 0.0 0.0 0.00 0.00 0.00 84 1015.4
20260508011556 44 312 0.0 0.0 0.00 0.00 0.00 85 1015.3
20260508011053 44 312 0.0 0.0 0.00 0.00 0.00 84 1015.4
20260508010549 44 312 0.0 0.0 0.00 0.00 0.00 82 1015.3
20260508010047 44 312 0.0 0.0 0.00 0.00 0.00 83 1015.2
20260508005543 44 312 0.0 0.0 0.00 0.00 0.00 80 1015.3
20260508005040 45 312 0.0 0.0 0.00 0.00 0.00 77 1015.2
20260508004536 46 312 0.0 0.0 0.00 0.00 0.00 75 1015.2
20260508004033 47 312 0.0 0.0 0.00 0.00 0.00 73 1015.1
20260508003529 48 312 0.0 0.0 0.00 0.00 0.00 70 1015.2
20260508003027 48 312 0.0 0.0 0.00 0.00 0.00 69 1015.2
20260508002523 49 311 0.0 0.0 0.00 0.00 0.00 67 1015.2
20260508002021 49 311 0.0 0.0 0.00 0.00 0.00 62 1015.0
20260508001516 50 311 0.0 0.0 0.00 0.00 0.00 63 1015.1
20260508001013 50 311 0.0 0.0 0.00 0.00 0.00 56 1014.9
20260508000509 51 311 0.0 0.0 0.00 0.00 0.00 56 1014.7
20260508000006 52 315 0.0 0.0 0.00 0.00 0.00 54 1014.8
20260507235502 52 315 0.0 0.0 0.00 0.00 0.00 52 1014.6
20260507235000 53 316 0.0 0.9 0.00 0.00 0.00 51 1014.7
20260507234456 53 261 0.9 1.7 0.00 0.00 0.00 50 1014.6
20260507233953 53 273 0.0 0.9 0.00 0.00 0.00 52 1014.8
20260507233450 53 255 0.9 1.7 0.00 0.00 0.00 49 1014.9
20260507232948 54 257 3.5 3.5 0.00 0.00 0.00 48 1014.7
20260507232444 54 259 0.0 0.9 0.00 0.00 0.00 48 1014.7
20260507231942 54 258 2.6 3.5 0.00 0.00 0.00 48 1014.8
20260507231438 54 52 0.9 0.9 0.00 0.00 0.00 48 1014.8
20260507230935 54 294 1.7 3.5 0.00 0.00 0.00 47 1014.7
20260507230432 54 256 2.6 3.5 0.00 0.00 0.00 46 1015.0
20260507225932 55 14 2.6 3.5 0.00 0.00 0.00 47 1014.8
20260507225429 55 264 1.7 2.6 0.00 0.00 0.00 46 1014.8
20260507224925 57 264 0.9 0.9 0.00 0.00 0.00 46 1014.8
20260507224421 56 354 0.9 0.9 0.00 0.00 0.00 48 1015.0
20260507223918 55 341 0.9 1.7 0.00 0.00 0.00 45 1014.8
20260507223414 55 342 1.7 2.6 0.00 0.00 0.00 46 1015.0
20260507222911 56 341 1.7 2.6 0.00 0.00 0.00 46 1015.0
20260507222408 56 229 4.3 7.0 0.00 0.00 0.00 44 1015.0
20260507221905 56 348 1.7 2.6 0.00 0.00 0.00 44 1014.7
20260507221401 56 354 3.5 3.5 0.00 0.00 0.00 44 1015.1
20260507220857 56 11 7.0 8.7 0.00 0.00 0.00 43 1014.9
20260507220355 55 338 2.6 2.6 0.00 0.00 0.00 47 1015.0
20260507215852 56 348 5.2 6.1 0.00 0.00 0.00 46 1014.9
20260507215348 56 344 5.2 7.0 0.00 0.00 0.00 43 1014.6
20260507214845 56 349 6.1 7.8 0.00 0.00 0.00 46 1014.5
20260507214343 56 285 1.7 2.6 0.00 0.00 0.00 45 1014.7
20260507213844 55 255 3.5 7.0 0.00 0.00 0.00 47 1014.7
20260507213341 55 273 2.6 5.2 0.00 0.00 0.00 46 1014.6
20260507212837 55 267 4.3 5.2 0.00 0.00 0.00 45 1014.9
20260507212333 56 17 4.3 5.2 0.00 0.00 0.00 46 1014.7
20260507211830 57 335 3.5 6.1 0.00 0.00 0.00 44 1014.8
20260507211327 57 245 1.7 3.5 0.00 0.00 0.00 47 1014.4
20260507210824 57 359 1.7 5.2 0.00 0.00 0.00 50 1014.6
20260507210321 55 246 2.6 5.2 0.00 0.00 0.00 48 1014.6
20260507205817 55 334 0.9 0.9 0.00 0.00 0.00 47 1014.4
20260507205315 57 244 4.3 6.1 0.00 0.00 0.00 45 1014.6
20260507204810 57 243 3.5 3.5 0.00 0.00 0.00 47 1014.4
20260507204308 56 251 4.3 6.1 0.00 0.00 0.00 48 1014.6
20260507203806 56 340 3.5 3.5 0.00 0.00 0.00 47 1014.6
20260507203303 57 245 2.6 2.6 0.00 0.00 0.00 49 1014.5
20260507202759 57 241 3.5 5.2 0.00 0.00 0.00 48 1014.7
20260507202255 55 293 1.7 2.6 0.00 0.00 0.00 51 1014.5
20260507201750 55 310 4.3 7.0 0.00 0.00 0.00 51 1014.5
20260507201247 54 252 1.7 2.6 0.00 0.00 0.00 53 1014.4
20260507200744 55 242 1.7 2.6 0.00 0.00 0.00 55 1014.7
20260507200239 55 231 3.5 3.5 0.00 0.00 0.00 54 1014.7
20260507195736 56 247 3.5 5.2 0.00 0.00 0.00 49 1014.7
20260507195233 57 298 0.9 1.7 0.00 0.00 0.00 58 1014.6
20260507194731 54 272 3.5 6.1 0.00 0.00 0.00 56 1014.7
20260507194226 55 13 3.5 5.2 0.00 0.00 0.00 54 1014.8
20260507193723 57 264 4.3 5.2 0.00 0.00 0.00 54 1014.6
20260507193220 57 252 1.7 2.6 0.00 0.00 0.00 54 1014.7
20260507192716 56 19 2.6 3.5 0.00 0.00 0.00 56 1014.6
20260507192213 54 239 2.6 2.6 0.00 0.00 0.00 54 1015.0
20260507191708 57 288 4.3 7.8 0.00 0.00 0.00 53 1014.9
20260507191206 56 342 2.6 3.5 0.00 0.00 0.00 55 1015.0
20260507190703 54 254 5.2 8.7 0.00 0.00 0.00 58 1015.0
20260507190202 54 328 1.7 1.7 0.00 0.00 0.00 57 1014.9
20260507185700 55 242 2.6 5.2 0.00 0.00 0.00 56 1015.0
20260507185157 57 263 3.5 5.2 0.00 0.00 0.00 53 1014.9
20260507184654 56 273 1.7 2.6 0.00 0.00 0.00 60 1014.9
20260507184152 55 234 0.9 1.7 0.00 0.00 0.00 54 1015.0
20260507183648 57 196 3.5 5.2 0.00 0.00 0.00 55 1014.9
20260507183145 57 240 4.3 6.1 0.00 0.00 0.00 49 1015.0
20260507182642 56 216 5.2 7.0 0.00 0.00 0.00 54 1014.8
20260507182137 56 204 3.5 3.5 0.00 0.00 0.00 52 1014.7
20260507181634 57 226 2.6 5.2 0.00 0.00 0.00 56 1015.0
20260507181130 56 235 2.6 2.6 0.00 0.00 0.00 52 1015.0
20260507180627 55 236 4.3 6.1 0.00 0.00 0.00 52 1015.0
20260507180124 57 215 4.3 5.2 0.00 0.00 0.00 59 1015.1
20260507175620 54 223 2.6 3.5 0.00 0.00 0.00 56 1015.2
20260507175117 57 258 6.1 7.8 0.00 0.00 0.00 53 1015.3
20260507174614 56 220 3.5 5.2 0.00 0.00 0.00 53 1015.3
20260507174112 54 249 5.2 7.0 0.00 0.00 0.00 55 1015.2
20260507173609 57 224 4.3 7.8 0.00 0.00 0.00 58 1015.3
20260507173106 57 242 1.7 2.6 0.00 0.00 0.00 53 1015.3
20260507172602 56 248 5.2 5.2 0.00 0.00 0.00 51 1015.3
20260507172059 55 240 3.5 5.2 0.00 0.00 0.00 54 1015.3
20260507171554 56 248 3.5 5.2 0.00 0.00 0.00 57 1015.0
20260507171052 56 269 2.6 3.5 0.00 0.00 0.00 59 1015.4
20260507170549 54 297 1.7 2.6 0.00 0.00 0.00 56 1015.4
20260507170046 56 323 5.2 7.8 0.00 0.00 0.00 57 1015.2
20260507165541 56 249 3.5 3.5 0.00 0.00 0.00 55 1015.3
20260507165038 55 229 4.3 5.2 0.00 0.00 0.00 53 1015.3
20260507164534 56 234 4.3 6.1 0.00 0.00 0.00 57 1015.3
20260507164031 55 213 0.9 1.7 0.00 0.00 0.00 57 1015.4
20260507163528 56 249 3.5 3.5 0.00 0.00 0.00 54 1015.4
20260507163027 54 197 5.2 7.0 0.00 0.00 0.00 59 1015.3
20260507162526 55 259 2.6 2.6 0.00 0.00 0.00 53 1015.4
20260507162024 53 356 2.6 5.2 0.00 0.00 0.00 59 1015.4
20260507161520 53 247 3.5 5.2 0.00 0.00 0.00 58 1015.5
20260507161017 53 326 1.7 2.6 0.00 0.00 0.00 55 1015.3
20260507160513 55 13 5.2 7.0 0.00 0.00 0.00 53 1015.3
20260507160010 55 229 4.3 6.1 0.00 0.00 0.00 60 1015.6
20260507155505 55 25 6.1 7.0 0.00 0.00 0.00 55 1015.5
20260507155003 54 6 0.9 1.7 0.00 0.00 0.00 54 1015.4
20260507154459 53 343 3.5 3.5 0.00 0.00 0.00 56 1015.4
20260507153956 54 253 2.6 3.5 0.00 0.00 0.00 56 1015.4
20260507153453 53 246 4.3 9.6 0.00 0.00 0.00 57 1015.4
20260507152949 53 6 1.7 2.6 0.00 0.00 0.00 59 1015.3
20260507152445 54 246 3.5 3.5 0.00 0.00 0.00 56 1015.3
20260507151941 53 213 2.6 2.6 0.00 0.00 0.00 64 1015.4
20260507151438 54 264 2.6 3.5 0.00 0.00 0.00 61 1015.4
20260507150934 53 268 1.7 3.5 0.00 0.00 0.00 63 1015.3
20260507150432 54 243 2.6 3.5 0.00 0.00 0.00 59 1015.3
20260507145928 54 233 1.7 1.7 0.00 0.00 0.00 66 1015.4
20260507145424 53 243 2.6 2.6 0.00 0.00 0.00 63 1015.5
20260507144921 53 353 1.7 2.6 0.00 0.00 0.00 67 1015.6
20260507144418 53 327 1.7 1.7 0.00 0.00 0.00 64 1015.5
20260507143915 52 231 0.9 0.9 0.00 0.00 0.00 74 1015.3
20260507143412 52 244 2.6 3.5 0.00 0.00 0.00 70 1015.4
20260507142908 51 330 1.7 1.7 0.00 0.00 0.00 69 1015.3
20260507142404 52 170 2.6 3.5 0.00 0.00 0.00 77 1015.3
20260507141902 51 112 1.7 2.6 0.00 0.00 0.00 73 1015.5
20260507141358 51 224 2.6 2.6 0.00 0.00 0.00 78 1015.4
20260507140854 51 235 4.3 5.2 0.00 0.00 0.00 72 1015.6
20260507140351 51 269 2.6 3.5 0.00 0.00 0.00 74 1015.7
20260507135849 51 242 3.5 3.5 0.00 0.00 0.00 73 1015.5
20260507135346 50 239 2.6 2.6 0.00 0.00 0.00 78 1015.6
20260507134843 49 245 1.7 2.6 0.00 0.00 0.00 76 1015.6
20260507134339 49 324 1.7 1.7 0.00 0.00 0.00 77 1015.8
20260507133835 49 245 1.7 1.7 0.00 0.00 0.00 77 1015.6
20260507133331 48 246 0.9 1.7 0.00 0.00 0.00 82 1015.8
20260507132830 48 245 1.7 2.6 0.00 0.00 0.00 80 1015.7
20260507132325 48 239 0.9 0.9 0.00 0.00 0.00 81 1015.9
20260507131823 47 239 0.0 0.9 0.00 0.00 0.00 82 1015.8
20260507131319 47 246 0.9 1.7 0.00 0.00 0.00 81 1015.8
20260507130816 46 245 0.0 0.0 0.00 0.00 0.00 81 1015.8
20260507130314 46 243 3.5 6.1 0.00 0.00 0.00 82 1015.7